Location: Grand Rapids
(42.9630°N, 85.6680°W)
Time: 18:16:04
(UTC-04:00)

Envisat - Pass Details

Date: 21 April 2024
Orbit: 762 x 764 km, 98.3° (Epoch: 02 October)

Event Time Altitude Azimuth Distance (km) Brightness Sun altitude
Rises 04:06:58 0° 26° (NNE) 3,240 7.5 -25.7°
Reaches altitude 10° 04:09:42 10° 39° (NE) 2,308 6.5 -25.4°
Maximum altitude 04:13:50 25° 94° (E) 1,525 4.9 -24.9°
Enters shadow 04:17:22 12° 144° (SE) 2,128 5.2 -24.4°
